Regional Weather Roundup
Issued by NWS

Home | Current Version | Previous Version | Text Only | Print | Product List | Glossary Off
Versions: 1 2 3 4 5 6 7 8 9 10 11 12 13 14 15 16 17 18 19 20 21 22 23 24 25 26 27 28 29 30 31 32 33 34 35 36 37 38 39 40 41 42 43 44 45 46 47 48 49 50

000
ASUS45 KBOU 061410
RWRCO

WEATHER ROUNDUP FOR COLORADO
NATIONAL WEATHER SERVICE DENVER/BOULDER CO
800 AM MDT MON JUL 06 2015

NOTE: "FAIR" INDICATES FEW OR NO CLOUDS BELOW 12000 FEET WITH NO
SIGNIFICANT WEATHER AND/OR OBSTRUCTIONS TO VISIBILITY.

COZ001>005-013-030-031-061500-
...NORTHWEST COLORADO...

CITY           SKY/WX    TMP DP  RH WIND       PRES   REMARKS
CRAIG          CLOUDY    55  54  96 CALM      30.28S
HAYDEN         CLOUDY    55  50  82 N3        30.30R
MEEKER         LGT RAIN  56  53  90 E3        30.28R
MOUNT WERNER   NOT AVBL
STEAMBOAT SPGS CLOUDY    52  52  99 CALM      30.31R
WALDEN         CLOUDY    52  46  82 CALM      30.36R
$$

COZ006>008-011-061500-
...WEST CENTRAL VALLEYS...

CITY           SKY/WX    TMP DP  RH WIND       PRES   REMARKS
GRAND JUNCTION MOSUNNY   67  58  72 SE7       30.16S
MONTROSE       MOSUNNY   63  54  72 CALM      30.24R
EAGLE          PTSUNNY   59  55  88 CALM      30.31R
RIFLE          PTSUNNY   61  56  83 E5        30.22S
DELTA          MOSUNNY   64  56  77 CALM      30.21R
NUCLA          MOSUNNY   63  54  72 NW3       30.27R
$$

COZ017>023-064>068-061500-
...SOUTHWEST COLORADO...

CITY           SKY/WX    TMP DP  RH WIND       PRES   REMARKS
DURANGO        MOSUNNY   61  51  70 CALM      30.24R
CORTEZ         PTSUNNY   67  53  61 NE6       30.22R
PAGOSA SPRINGS MOSUNNY   60  51  70 CALM      30.31S
TELLURIDE      MOSUNNY   54  49  84 CALM      30.43S
WOLF CREEK PAS NOT AVBL
$$

COZ009-010-012-014-032>034-037-058>063-061500-
...CENTRAL COLORADO...

CITY           SKY/WX    TMP DP  RH WIND       PRES   REMARKS
ASPEN          PTSUNNY   56  51  84 CALM      30.34R
BUENA VISTA    MOSUNNY   56  49  79 CALM      30.33S
COPPER MTN     MOSUNNY   46  41  81 W16       30.59S
BERTHOUD PASS  HAZE      37  30  75 N13G25    30.61R VSB<1/4
COTTONWOOD PAS NOT AVBL
GUNNISON       MOSUNNY   52  46  82 CALM      30.38R
KREMMLING      CLOUDY    54  50  87 CALM      30.34S
LEADVILLE      MOSUNNY   52  48  86 NW3       30.44S
MONARCH PASS   SUNNY     46  39  76 CALM      30.69R
SALIDA         MOSUNNY   62  52  71 CALM      30.38S
SUNLIGHT       CLOUDY    52  50  93 N6        30.56R FOG
WILKERSON PASS MOSUNNY   48  43  81 N6        30.56S
$$

COZ069>075-061500-
...SAN LUIS VALLEY/SANGRE DE CRISTO MOUNTAINS...

CITY           SKY/WX    TMP DP  RH WIND       PRES   REMARKS
ALAMOSA        MOSUNNY   61  54  77 VRB5      30.30R
LA VETA PASS   FOG       46  45  93 MISG      30.47R VSB<1/4
SAGUACHE       MOSUNNY   59  50  72 NW15      30.33S
$$

COZ035-036-038>040-061500-
...NORTHERN COLORADO FRONT RANGE...

CITY           SKY/WX    TMP DP  RH WIND       PRES   REMARKS
DENVER INTL AP LGT RAIN  59  58  96 N10       30.23R FOG
DMNS CITY PARK   N/A     60  58  92 NE15G21   30.23R
AURORA         LGT RAIN  59  59 100 N13       30.24R
FRONT RANGE AP LGT RAIN  61  59  94 N8        30.24R
ERIE MUNI ARPT CLOUDY    61  58  91 NE9       30.22S
BOULDER MUN AP RAIN      59  59 100 NE7       30.24R
CENTENNIAL     CLOUDY    61  57  87 NE7       30.24R
BROOMFIELD     DRIZZLE   59  57  94 N12       30.25R
FORT COLLINS   CLOUDY    61  54  77 NE9       30.25R
LONGMONT       LGT RAIN  62  59  91 NE9       30.24R
$$

COZ041-046-047-076>085-087-088-061500-
...PIKES PEAK/PALMER DIVIDE AND SOUTHERN FOOTHILLS...

CITY           SKY/WX    TMP DP  RH WIND       PRES   REMARKS
COLO. SPRINGS  PTSUNNY   66  56  70 N14G24    30.23R
A. F. ACADEMY  PTSUNNY   61  55  82 N12       30.25R
ELLICOTT       MOSUNNY  N/A N/A N/A N21       30.21R
FALCON         CLOUDY    61  56  83 N12G17    30.28S
FORT CARSON    MOSUNNY   67  57  70 N14       30.20R
LIMON          CLOUDY    60  59  96 N20       30.19R FOG
MONUMENT HILL  CLOUDY    54  54 100 MISG      30.30R FOG
TRINIDAD       CLOUDY    65  58  78 NW8       30.20R
$$

COZ042>045-048>051-090-091-061500-
...NORTHEAST COLORADO...

CITY           SKY/WX    TMP DP  RH WIND       PRES   REMARKS
GREELEY ARPT   CLOUDY    63  55  77 NE7       30.22R
AKRON          LGT RAIN  59  59 100 N14       30.18R FOG
BURLINGTON     CLOUDY    64  60  87 N22G29    30.10R
WRAY           CLOUDY    67  59  76 N17       30.11R
STERLING       CLOUDY    61  57  88 N10         N/A
HOLYOKE        CLOUDY    64  59  82 N20G26    30.13R
FORT MORGAN    CLOUDY    62  55  78 N13G20    30.20R
$$

COZ086-089-092>099-061500-
...SOUTHEAST COLORADO...

CITY           SKY/WX    TMP DP  RH WIND       PRES   REMARKS
PUEBLO         PTSUNNY   73  58  59 NW10      30.14R
LA JUNTA       CLOUDY    70  61  73 N13       30.11R
LAMAR          CLOUDY    70  63  78 N8        30.06R
SPRINGFIELD      N/A     69  61  75 N24G30    30.08R
$$


USA.gov is the U.S. government's official web portal to all federal, state and local government web resources and services.